Williams, AZ

12:46 AM MST on April 27, 2017 (GMT -0700)
Williams

Weather History for KCMR - May, 2013

Change the Weather History Date:

Thursday, May 23, 2013

  Actual Average (K40G) Record (K40G)
Temperature  
Mean Temperature 62 °F -  
Max Temperature 73 °F 68 °F 86 °F (2001)
Min Temperature 50 °F 60 °F 60 °F (1998)
Degree Days  
Heating Degree Days 4    
Growing Degree Days 12 (Base 50)    
Moisture  
Dew Point 20 °F    
Average Humidity 21    
Maximum Humidity 37    
Minimum Humidity 10    
Precipitation  
Precipitation 0.00 in - - ()
Sea Level Pressure  
Sea Level Pressure 30.07 in    
Wind  
Wind Speed 16 mph (South)    
Max Wind Speed 30 mph    
Max Gust Speed 50 mph    
Visibility 10 miles    
Events      
Averages and records for this station are not official NWS values.
T = Trace of Precipitation, MM = Missing Value Source: NWS Daily Summary

Daily Weather History Graph

Daily Weather History Graph

Search for Another Location

Airport or City:

Trip Planner

Search our weather history database for the weather conditions in past years. The results will help you decide how hot, cold, wet, or windy it might be!

Date:

Astronomy

May. 23, 2013 Rise Set
Actual Time 5:19 AM MST 7:32 PM MST
Civil Twilight 4:50 AM MST 8:01 PM MST
Nautical Twilight 4:14 AM MST 8:36 PM MST
Astronomical Twilight 3:36 AM MST 9:15 PM MST
Moon 6:11 PM MST (5/23) 4:02 AM MST (5/23)
Length of Visible Light 15h 11m
Length of Day
14h 13m
Waxing Gibbous, 97% of the Moon is Illuminated
May 23
Waxing Gibbous
May 24
Full
May 31
Last Quarter
Jun 8
New
Jun 16
First Quarter

Hourly Weather History & Observations

Time (MST) Temp. Dew Point Humidity Pressure Visibility Wind Dir Wind Speed Gust Speed Precip Events Conditions
12:15 AM 59.0 °F 19.4 °F 22% 30.02 in 10.0 mi SSW 12.7 mph 18.4 mph N/A   Clear
12:35 AM 59.0 °F 19.4 °F 22% 30.02 in 10.0 mi South 15.0 mph - N/A   Clear
12:55 AM 59.0 °F 21.2 °F 23% 30.02 in 10.0 mi South 11.5 mph 20.7 mph N/A   Clear
1:15 AM 57.2 °F 21.2 °F 25% 30.01 in 10.0 mi South 16.1 mph 20.7 mph N/A   Clear
1:35 AM 57.2 °F 21.2 °F 25% 30.02 in 10.0 mi South 15.0 mph 23.0 mph N/A   Clear
1:55 AM 55.4 °F 21.2 °F 26% 30.02 in 10.0 mi South 17.3 mph 21.9 mph N/A   Clear
2:15 AM 55.4 °F 24.8 °F 31% 30.01 in 10.0 mi South 17.3 mph 24.2 mph N/A   Clear
2:35 AM 55.4 °F 24.8 °F 31% 30.01 in 10.0 mi South 16.1 mph - N/A   Clear
2:55 AM 55.4 °F 26.6 °F 33% 30.00 in 10.0 mi South 15.0 mph 21.9 mph N/A   Clear
3:15 AM 55.4 °F 26.6 °F 33% 30.01 in 10.0 mi South 15.0 mph 26.5 mph N/A   Clear
3:35 AM 55.4 °F 28.4 °F 36% 30.01 in 10.0 mi South 17.3 mph 26.5 mph N/A   Clear
3:55 AM 55.4 °F 28.4 °F 36% 30.01 in 10.0 mi South 17.3 mph 24.2 mph N/A   Clear
4:15 AM 55.4 °F 26.6 °F 33% 30.02 in 10.0 mi South 13.8 mph - N/A   Clear
4:35 AM 55.4 °F 26.6 °F 33% 30.02 in 10.0 mi South 17.3 mph 23.0 mph N/A   Clear
4:55 AM 55.4 °F 26.6 °F 33% 30.02 in 10.0 mi South 13.8 mph 23.0 mph N/A   Clear
5:15 AM 53.6 °F 24.8 °F 33% 30.04 in 10.0 mi South 12.7 mph 18.4 mph N/A   Clear
5:35 AM 53.6 °F 24.8 °F 33% 30.04 in 10.0 mi SSE 9.2 mph - N/A   Clear
5:55 AM 50.0 °F 24.8 °F 37% 30.05 in 10.0 mi SSE 9.2 mph - N/A   Clear
6:15 AM 53.6 °F 24.8 °F 33% 30.04 in 10.0 mi SSE 12.7 mph - N/A   Clear
6:35 AM 53.6 °F 24.8 °F 33% 30.04 in 10.0 mi SSE 11.5 mph - N/A   Clear
6:55 AM 57.2 °F 24.8 °F 29% 30.05 in 10.0 mi SSE 11.5 mph - N/A   Clear
7:15 AM 59.0 °F 19.4 °F 22% 30.05 in 10.0 mi South 12.7 mph 20.7 mph N/A   Clear
7:35 AM 59.0 °F 19.4 °F 22% 30.05 in 10.0 mi South 16.1 mph 21.9 mph N/A   Clear
7:55 AM 60.8 °F 17.6 °F 19% 30.06 in 10.0 mi South 16.1 mph 25.3 mph N/A   Clear
8:15 AM 62.6 °F 19.4 °F 19% 30.06 in 10.0 mi South 21.9 mph 26.5 mph N/A   Clear
8:35 AM 62.6 °F 19.4 °F 19% 30.07 in 10.0 mi South 21.9 mph 29.9 mph N/A   Clear
8:55 AM 64.4 °F 21.2 °F 19% 30.07 in 10.0 mi South 20.7 mph 28.8 mph N/A   Clear
9:15 AM 64.4 °F 23.0 °F 21% 30.08 in 10.0 mi South 21.9 mph 32.2 mph N/A   Clear
9:35 AM 64.4 °F 24.8 °F 22% 30.07 in 10.0 mi SSE 24.2 mph 31.1 mph N/A   Clear
9:55 AM 64.4 °F 24.8 °F 22% 30.08 in 10.0 mi South 17.3 mph 28.8 mph N/A   Clear
10:15 AM 66.2 °F 23.0 °F 19% 30.08 in 10.0 mi SSE 25.3 mph 32.2 mph N/A   Clear
10:35 AM 66.2 °F 23.0 °F 19% 30.08 in 10.0 mi South 16.1 mph 28.8 mph N/A   Clear
10:55 AM 68.0 °F 23.0 °F 18% 30.08 in 10.0 mi South 19.6 mph 29.9 mph N/A   Clear
11:15 AM 68.0 °F 21.2 °F 17% 30.08 in 10.0 mi South 17.3 mph 34.5 mph N/A   Clear
11:35 AM 68.0 °F 17.6 °F 15% 30.08 in 10.0 mi South 26.5 mph 36.8 mph N/A   Clear
11:55 AM 68.0 °F 17.6 °F 15% 30.08 in 10.0 mi SSW 21.9 mph 36.8 mph N/A   Clear
12:15 PM 69.8 °F 17.6 °F 14% 30.08 in 10.0 mi South 27.6 mph 36.8 mph N/A   Clear
12:35 PM 69.8 °F 17.6 °F 14% 30.08 in 10.0 mi SSW 25.3 mph 36.8 mph N/A   Clear
12:55 PM 71.6 °F 17.6 °F 13% 30.08 in 10.0 mi SSW 25.3 mph 39.1 mph N/A   Clear
1:15 PM 71.6 °F 17.6 °F 13% 30.07 in 10.0 mi SSE 29.9 mph 38.0 mph N/A   Clear
1:35 PM 71.6 °F 17.6 °F 13% 30.07 in 10.0 mi South 27.6 mph 38.0 mph N/A   Clear
1:55 PM 71.6 °F 15.8 °F 12% 30.07 in 10.0 mi South 24.2 mph 39.1 mph N/A   Clear
2:15 PM 71.6 °F 17.6 °F 13% 30.07 in 10.0 mi SSW 25.3 mph 39.1 mph N/A   Clear
2:35 PM 73.4 °F 14.0 °F 10% 30.07 in 10.0 mi South 28.8 mph 49.5 mph N/A   Clear
2:55 PM 73.4 °F 15.8 °F 11% 30.07 in 10.0 mi South 25.3 mph 32.2 mph N/A   Clear
3:15 PM 71.6 °F 15.8 °F 12% 30.07 in 10.0 mi South 24.2 mph 39.1 mph N/A   Clear
3:35 PM 71.6 °F 15.8 °F 12% 30.06 in 10.0 mi South 28.8 mph 36.8 mph N/A   Clear
3:55 PM 71.6 °F 17.6 °F 13% 30.06 in 10.0 mi South 24.2 mph 36.8 mph N/A   Clear
4:15 PM 71.6 °F 17.6 °F 13% 30.06 in 10.0 mi South 21.9 mph 35.7 mph N/A   Clear
4:35 PM 71.6 °F 17.6 °F 13% 30.06 in 10.0 mi South 25.3 mph 33.4 mph N/A   Clear
4:55 PM 71.6 °F 17.6 °F 13% 30.07 in 10.0 mi SSW 21.9 mph 32.2 mph N/A   Clear
5:15 PM 69.8 °F 15.8 °F 13% 30.07 in 10.0 mi South 23.0 mph 39.1 mph N/A   Clear
5:35 PM 69.8 °F 17.6 °F 14% 30.06 in 10.0 mi SSW 20.7 mph 31.1 mph N/A   Clear
5:55 PM 68.0 °F 17.6 °F 15% 30.06 in 10.0 mi South 20.7 mph 33.4 mph N/A   Clear
6:15 PM 68.0 °F 17.6 °F 15% 30.06 in 10.0 mi SSW 13.8 mph 31.1 mph N/A   Clear
6:35 PM 66.2 °F 17.6 °F 15% 30.07 in 10.0 mi South 17.3 mph 25.3 mph N/A   Clear
6:55 PM 66.2 °F 17.6 °F 15% 30.08 in 10.0 mi South 12.7 mph 25.3 mph N/A   Clear
7:15 PM 64.4 °F 17.6 °F 16% 30.08 in 10.0 mi SSW 18.4 mph 25.3 mph N/A   Clear
7:35 PM 62.6 °F 17.6 °F 18% 30.09 in 10.0 mi South 15.0 mph 24.2 mph N/A   Clear
7:55 PM 62.6 °F 17.6 °F 18% 30.10 in 10.0 mi SSW 10.4 mph 21.9 mph N/A   Clear
8:15 PM 60.8 °F 17.6 °F 19% 30.11 in 10.0 mi South 12.7 mph 17.3 mph N/A   Clear
8:35 PM 59.0 °F 17.6 °F 20% 30.11 in 10.0 mi South 11.5 mph - N/A   Clear
8:55 PM 59.0 °F 17.6 °F 20% 30.12 in 10.0 mi SSW 8.1 mph - N/A   Clear
9:15 PM 57.2 °F 17.6 °F 21% 30.13 in 10.0 mi SSW 8.1 mph - N/A   Clear
9:35 PM 57.2 °F 17.6 °F 21% 30.14 in 10.0 mi South 9.2 mph 16.1 mph N/A   Clear
9:55 PM 57.2 °F 17.6 °F 21% 30.14 in 10.0 mi South 9.2 mph - N/A   Clear
10:15 PM 57.2 °F 17.6 °F 21% 30.15 in 10.0 mi South 9.2 mph - N/A   Clear
10:35 PM 55.4 °F 17.6 °F 23% 30.15 in 10.0 mi South 8.1 mph - N/A   Clear
10:55 PM 53.6 °F 15.8 °F 22% 30.14 in 10.0 mi South 8.1 mph - N/A   Clear
11:15 PM 55.4 °F 15.8 °F 21% 30.14 in 10.0 mi SSW 6.9 mph - N/A   Clear
11:35 PM 53.6 °F 15.8 °F 22% 30.14 in 10.0 mi South 8.1 mph - N/A   Clear
11:55 PM 50.0 °F 14.0 °F 24% 30.14 in 10.0 mi South 8.1 mph - N/A   Clear